Time,TemperatureF,DewpointF,PressureIn,WindDirection,WindDirectionDegrees,WindSpeedMPH,WindSpeedGustMPH,Humidity,HourlyPrecipIn,Conditions,Clouds,dailyrainin,SoftwareType,DateUTC
2013-03-16 00:03:00,44.0,33.0,-100.00,WSW,245,7.0,-999.0,64,0.00,,,0.00,,2013-03-16 04:03:00,
2013-03-16 00:13:00,44.0,33.0,-100.00,WSW,245,7.0,-999.0,64,0.00,,,0.00,,2013-03-16 04:13:00,
2013-03-16 00:53:00,42.0,33.0,-100.00,NW,313,4.0,-999.0,71,0.00,,,0.00,,2013-03-16 04:53:00,
2013-03-16 01:03:00,42.0,33.0,-100.00,NW,313,4.0,-999.0,71,0.00,,,0.00,,2013-03-16 05:03:00,
2013-03-16 01:12:00,42.0,33.0,-100.00,NW,313,4.0,-999.0,71,0.00,,,0.00,,2013-03-16 05:12:00,
2013-03-16 01:53:00,41.0,30.0,-100.00,NNW,347,1.0,-999.0,64,0.00,,,0.00,,2013-03-16 05:53:00,
2013-03-16 02:02:00,41.0,30.0,-100.00,NNW,347,1.0,-999.0,64,0.00,,,0.00,,2013-03-16 06:02:00,
2013-03-16 02:12:00,41.0,30.0,-100.00,NNW,347,1.0,-999.0,64,0.00,,,0.00,,2013-03-16 06:12:00,
2013-03-16 02:52:00,42.0,30.0,-100.00,WSW,247,3.0,-999.0,62,0.00,,,0.00,,2013-03-16 06:52:00,
2013-03-16 03:02:00,42.0,30.0,-100.00,WSW,247,3.0,-999.0,62,0.00,,,0.00,,2013-03-16 07:02:00,
2013-03-16 03:12:00,42.0,30.0,-100.00,WSW,247,3.0,-999.0,62,0.00,,,0.00,,2013-03-16 07:12:00,
2013-03-16 03:53:00,39.0,33.0,-100.00,NNW,328,3.0,-999.0,80,0.00,,,0.00,,2013-03-16 07:53:00,
2013-03-16 04:03:00,39.0,33.0,-100.00,NNW,328,3.0,-999.0,80,0.00,,,0.00,,2013-03-16 08:03:00,
2013-03-16 04:12:00,39.0,33.0,-100.00,NNW,328,3.0,-999.0,80,0.00,,,0.00,,2013-03-16 08:12:00,
2013-03-16 04:52:00,40.0,30.0,-100.00,WNW,295,2.0,-999.0,67,0.00,,,0.00,,2013-03-16 08:52:00,
2013-03-16 05:02:00,40.0,30.0,-100.00,WNW,295,2.0,-999.0,67,0.00,,,0.00,,2013-03-16 09:02:00,
2013-03-16 05:12:00,40.0,30.0,-100.00,WNW,295,2.0,-999.0,67,0.00,,,0.00,,2013-03-16 09:12:00,
2013-03-16 05:53:00,41.0,31.0,-100.00,NW,324,2.0,-999.0,66,0.00,,,0.00,,2013-03-16 09:53:00,
2013-03-16 06:03:00,41.0,31.0,-100.00,NW,324,2.0,-999.0,66,0.00,,,0.00,,2013-03-16 10:03:00,
2013-03-16 06:12:00,41.0,31.0,-100.00,NW,324,2.0,-999.0,66,0.00,,,0.00,,2013-03-16 10:12:00,
2013-03-16 06:53:00,43.0,32.0,-100.00,NNE,33,3.0,-999.0,65,0.00,,,0.00,,2013-03-16 10:53:00,
2013-03-16 07:03:00,43.0,32.0,-100.00,NNE,33,3.0,-999.0,65,0.00,,,0.00,,2013-03-16 11:03:00,
2013-03-16 07:12:00,43.0,32.0,-100.00,NNE,33,3.0,-999.0,65,0.00,,,0.00,,2013-03-16 11:12:00,
2013-03-16 07:53:00,42.0,31.0,-100.00,NE,56,3.0,-999.0,66,0.00,,,0.00,,2013-03-16 11:53:00,
2013-03-16 08:02:00,42.0,31.0,-100.00,NE,56,3.0,-999.0,66,0.00,,,0.00,,2013-03-16 12:02:00,
2013-03-16 08:12:00,42.0,31.0,-100.00,NE,56,3.0,-999.0,66,0.00,,,0.00,,2013-03-16 12:12:00,
2013-03-16 08:53:00,41.0,32.0,-100.00,East,95,8.0,-999.0,71,0.00,,,0.00,,2013-03-16 12:53:00,
2013-03-16 09:02:00,41.0,32.0,-100.00,East,95,8.0,-999.0,71,0.00,,,0.00,,2013-03-16 13:02:00,
2013-03-16 09:12:00,41.0,32.0,-100.00,East,95,8.0,-999.0,71,0.00,,,0.00,,2013-03-16 13:12:00,
2013-03-16 09:53:00,41.0,30.0,-100.00,East,82,11.0,-999.0,65,0.00,,,0.00,,2013-03-16 13:53:00,
2013-03-16 10:03:00,41.0,30.0,-100.00,East,82,11.0,-999.0,65,0.00,,,0.00,,2013-03-16 14:03:00,
2013-03-16 10:12:00,41.0,30.0,-100.00,East,82,11.0,-999.0,65,0.00,,,0.00,,2013-03-16 14:12:00,
2013-03-16 10:53:00,41.0,29.0,-100.00,East,87,10.0,-999.0,62,0.00,,,0.00,,2013-03-16 14:53:00,
2013-03-16 11:03:00,41.0,29.0,-100.00,East,87,10.0,-999.0,62,0.00,,,0.00,,2013-03-16 15:03:00,
2013-03-16 11:13:00,41.0,29.0,-100.00,East,87,10.0,-999.0,62,0.00,,,0.00,,2013-03-16 15:13:00,
2013-03-16 11:53:00,41.0,27.0,-100.00,East,94,9.0,-999.0,58,0.00,,,0.00,,2013-03-16 15:53:00,
2013-03-16 12:03:00,41.0,27.0,-100.00,East,94,9.0,-999.0,58,0.00,,,0.00,,2013-03-16 16:03:00,
2013-03-16 12:13:00,41.0,27.0,-100.00,East,94,9.0,-999.0,58,0.00,,,0.00,,2013-03-16 16:13:00,
2013-03-16 12:53:00,43.0,31.0,-100.00,East,92,10.0,-999.0,62,0.00,,,0.00,,2013-03-16 16:53:00,
2013-03-16 13:03:00,43.0,31.0,-100.00,East,92,10.0,-999.0,62,0.00,,,0.00,,2013-03-16 17:03:00,
2013-03-16 13:13:00,43.0,31.0,-100.00,East,92,10.0,-999.0,62,0.00,,,0.00,,2013-03-16 17:13:00,
2013-03-16 13:53:00,42.0,31.0,-100.00,East,80,9.0,-999.0,64,0.00,,,-99.99,,2013-03-16 17:53:00,
2013-03-16 14:03:00,42.0,31.0,-100.00,East,80,9.0,-999.0,64,0.00,,,-99.99,,2013-03-16 18:03:00,
2013-03-16 14:13:00,42.0,31.0,-100.00,East,80,9.0,-999.0,64,0.00,,,-99.99,,2013-03-16 18:13:00,
2013-03-16 14:53:00,42.0,31.0,-100.00,East,82,10.0,-999.0,66,0.00,,,0.00,,2013-03-16 18:53:00,
2013-03-16 15:02:00,42.0,31.0,-100.00,East,82,10.0,-999.0,66,0.00,,,0.00,,2013-03-16 19:02:00,
2013-03-16 15:12:00,42.0,31.0,-100.00,East,82,10.0,-999.0,66,0.00,,,0.00,,2013-03-16 19:12:00,
2013-03-16 15:53:00,44.0,33.0,-100.00,East,94,10.0,-999.0,64,0.00,,,0.00,,2013-03-16 19:53:00,
2013-03-16 16:03:00,44.0,33.0,-100.00,East,94,10.0,-999.0,64,0.00,,,0.00,,2013-03-16 20:03:00,
2013-03-16 16:12:00,44.0,33.0,-100.00,East,94,10.0,-999.0,64,0.00,,,0.00,,2013-03-16 20:12:00,
2013-03-16 16:53:00,42.0,31.0,-100.00,ENE,75,11.0,-999.0,65,0.00,,,0.00,,2013-03-16 20:53:00,
2013-03-16 17:02:00,42.0,31.0,-100.00,ENE,75,11.0,-999.0,65,0.00,,,0.00,,2013-03-16 21:02:00,
2013-03-16 17:12:00,42.0,31.0,-100.00,ENE,75,11.0,-999.0,65,0.00,,,0.00,,2013-03-16 21:12:00,
2013-03-16 17:53:00,41.0,31.0,-100.00,East,81,11.0,-999.0,67,0.00,,,0.00,,2013-03-16 21:53:00,
2013-03-16 18:03:00,41.0,31.0,-100.00,East,81,11.0,-999.0,67,0.00,,,0.00,,2013-03-16 22:03:00,
2013-03-16 18:13:00,41.0,31.0,-100.00,East,81,11.0,-999.0,67,0.00,,,0.00,,2013-03-16 22:13:00,
2013-03-16 18:53:00,39.0,33.0,-100.00,ENE,59,11.0,-999.0,79,0.00,,,0.00,,2013-03-16 22:53:00,
2013-03-16 19:03:00,39.0,33.0,-100.00,ENE,59,11.0,-999.0,79,0.00,,,0.00,,2013-03-16 23:03:00,
2013-03-16 19:13:00,39.0,33.0,-100.00,ENE,59,11.0,-999.0,79,0.00,,,0.00,,2013-03-16 23:13:00,
2013-03-16 19:53:00,42.0,35.0,-100.00,ENE,57,9.0,-999.0,76,0.00,,,0.00,,2013-03-16 23:53:00,
2013-03-16 20:02:00,42.0,35.0,-100.00,ENE,57,9.0,-999.0,76,0.00,,,0.00,,2013-03-17 00:02:00,
2013-03-16 20:13:00,42.0,35.0,-100.00,ENE,57,9.0,-999.0,76,0.00,,,0.00,,2013-03-17 00:13:00,
2013-03-16 20:53:00,39.0,33.0,-100.00,NE,53,12.0,-999.0,80,0.00,,,0.00,,2013-03-17 00:53:00,
2013-03-16 21:03:00,39.0,33.0,-100.00,NE,53,12.0,-999.0,80,0.00,,,0.00,,2013-03-17 01:03:00,
2013-03-16 21:12:00,39.0,33.0,-100.00,NE,53,12.0,-999.0,80,0.00,,,0.00,,2013-03-17 01:12:00,
2013-03-16 21:53:00,40.0,35.0,-100.00,ENE,62,9.0,-999.0,81,0.00,,,0.00,,2013-03-17 01:53:00,
2013-03-16 22:03:00,40.0,35.0,-100.00,ENE,62,9.0,-999.0,81,0.00,,,0.00,,2013-03-17 02:03:00,
2013-03-16 22:13:00,40.0,35.0,-100.00,ENE,62,9.0,-999.0,81,0.00,,,0.00,,2013-03-17 02:13:00,
2013-03-16 22:53:00,38.0,33.0,-100.00,NE,39,10.0,-999.0,83,0.00,,,0.00,,2013-03-17 02:53:00,
2013-03-16 23:03:00,38.0,33.0,-100.00,NE,39,10.0,-999.0,83,0.00,,,0.00,,2013-03-17 03:03:00,
2013-03-16 23:12:00,38.0,33.0,-100.00,NE,39,10.0,-999.0,83,0.00,,,0.00,,2013-03-17 03:12:00,
2013-03-16 23:53:00,39.0,35.0,-100.00,NNE,18,7.0,-999.0,84,0.00,,,0.00,,2013-03-17 03:53:00,